Weather Roundup
Issued by NWS

Home | Current Version | Previous Version | Text Only | Print | Product List | Glossary On
Versions: 1 2 3 4 5 6 7 8 9 10 11 12 13 14 15 16 17 18 19 20 21 22 23 24 25 26 27 28 29 30 31 32 33 34 35 36 37 38 39 40 41 42 43 44 45 46 47 48 49 50
288
NZUS93 KARX 272359
HRRWXR

CURRENT HOURLY OBSERVATIONS ACROSS
MUCH OF THE UPPER MISSISSIPPI VALLEY
NATIONAL WEATHER SERVICE LA CROSSE WI
700 PM CDT THU JUL 27 2017


...SOUTHEAST MINNESOTA...


CITY           SKY/WX    TMP DP  RH WIND       PRES   REMARKS
ROCHESTER      SUNNY     78  60  53 N10       30.03S
ROCHESTER/MAYO FAIR      80  57  45 N7        30.03S
WINONA         SUNNY     81  61  50 CALM      29.99F
AUSTIN         SUNNY     81  61  50 N6        30.02S
ALBERT LEA     SUNNY     81  63  54 NE9       30.03S
DODGE CENTER   SUNNY     79  61  53 N6        30.03F
PRESTON        SUNNY     77  61  57 N6        30.03S
OWATONNA       SUNNY     79  61  53 NE8       30.03S
FARIBAULT      SUNNY     81  63  54 NE5       30.03S
$$

...ELSEWHERE IN MINNESOTA...


CITY           SKY/WX    TMP DP  RH WIND       PRES   REMARKS
MINNEAPOLIS    MOSUNNY   83  56  39 NE9G18    30.02S
INTNL FALLS    SUNNY     80  58  46 CALM      30.06S
DULUTH         MOSUNNY   69  58  67 E10       30.07R
RED WING       SUNNY     82  57  42 NE5       30.00S
REDWOOD FALLS  SUNNY     82  59  45 VRB5      30.04S
MANKATO        SUNNY     80  63  55 N7        30.04S
WORTHINGTON    SUNNY     78  61  55 NE8       30.08S
FAIRMONT       SUNNY     79  63  57 N7        30.04S
$$

...SOUTHWEST WISCONSIN...


CITY           SKY/WX    TMP DP  RH WIND       PRES   REMARKS
LA CROSSE      SUNNY     84  64  50 N9        29.98S
PRAIRIE DU CHI SUNNY     81  59  47 CALM      29.97S
BOSCOBEL       SUNNY     84  62  47 NE3       29.97F
LONE ROCK      NOT AVBL
PLATTEVILLE    NOT AVBL
FORT MC COY    PTSUNNY   80  62  55 NE5       29.99S
MAUSTON-NEW LI MOCLDY    81  64  55 E3        29.99S
VIROQUA        MOCLDY    78  66  66 N3        30.01S
WIS DELLS      MOSUNNY   78  58  49 E7        30.00S
$$

...ELSEWHERE IN WISCONSIN...


CITY           SKY/WX    TMP DP  RH WIND       PRES   REMARKS
MILWAUKEE      PTSUNNY   74  55  51 N16G26    29.98S
MADISON        PTSUNNY   78  62  57 NE9       29.98F
GREEN BAY      MOSUNNY   75  62  64 NE9       30.00F
EAU CLAIRE     NOT AVBL
BLACK RVR FLS  FAIR      82  56  39 NE8       29.99S
MEDFORD        MOSUNNY   75  60  59 CALM      30.03S
WAUSAU         PTSUNNY   76  60  57 NE8       30.01S
WIS RAPIDS     CLOUDY    79  60  52 E6        30.02S
MARSHFIELD     PTSUNNY   81  57  43 VRB5      30.01S
RICE LAKE      MOSUNNY   79  56  45 N3        30.04F
$$

...NORTHEAST IOWA...


CITY           SKY/WX    TMP DP  RH WIND       PRES   REMARKS
WATERLOO       SUNNY     80  63  55 NE7       29.98S
DUBUQUE        SUNNY     79  60  52 E8        29.99R
DECORAH        MOSUNNY  N/A N/A N/A MISG        N/A
MASON CITY     MOSUNNY   78  65  63 N12       30.03S
CHARLES CITY   PTSUNNY   79  64  61 NE6       30.01S
OELWEIN        SUNNY     79  66  65 NE7       30.00S
$$

...ELSEWHERE IN IOWA...


CITY           SKY/WX    TMP DP  RH WIND       PRES   REMARKS
DES MOINES     MOSUNNY   83  57  41 N15       29.97S
IOWA CITY      SUNNY     84  64  50 NE14      29.96S
FORT DODGE     SUNNY     81  63  54 NE6       30.02S
MARSHALLTOWN   MOSUNNY   81  64  56 NE9       29.98F
CEDAR RAPIDS   NOT AVBL
$$

...NORTHERN ILLINOIS...


CITY           SKY/WX    TMP DP  RH WIND       PRES   REMARKS
CHICAGO-OHARE  MOSUNNY   77  54  44 NE16G26   29.94S
CHICAGO-MIDWAY MOSUNNY   77  61  57 N18       29.93R
MOLINE         SUNNY     82  64  54 NE15      29.93R
ROCKFORD       MOSUNNY   81  61  50 NE14      29.97R
PEORIA         MOSUNNY   82  72  71 NE10      29.90R
$$

NOTE: "FAIR" INDICATES FEW OR NO CLOUDS BELOW 12,000 FEET WITH NO
SIGNIFICANT WEATHER AND/OR OBSTRUCTIONS TO VISIBILITY. WIND
SPEEDS ARE IN MILES-PER-HOUR.




USA.gov is the U.S. government's official web portal to all federal, state and local government web resources and services.